Probability
0 0 0 0 0 0 0 1 2 3 2 1 0 0 0 0 0 0 0 0 0 0 0 0 0 0 0 0 0 0 0 0 0 0 0 0 0 0 0 0 0 0 0
0 0 0 0 0 0 0 0 1 2 2 1 0 0 0 0 0 0 0 0 0 0 0 0 0 0 0 0 0 0 0 0 0 0 0 0 0 0 0 0 0 0 0
0 0 0 0 0 0 0 0 0 1 1 0 0 0 0 0 0 0 0 0 0 0 0 0 0 0 0 0 0 0 0 0 0 0 0 0 0 0 0 0 0 0 0
0 0 0 0 0 0 0 0 0 0 0 0 0 0 0 0 0 0 0 0 0 0 0 0 0 0 0 0 0 0 0 0 0 0 0 0 0 0 0 0 0 0 0
0 0 0 0 0 0 0 0 0 0 0 0 0 0 0 0 0 0 0 0 0 0 0 0 0 0 0 0 0 0 0 0 0 0 0 0 0 0 0 0 0 0 0
0 0 0 0 0 0 0 0 0 0 0 0 0 0 0 0 0 0 0 0 0 0 0 0 0 0 0 0 0 0 0 0 0 0 0 0 0 0 0 0 0 0 0
0 0 0 0 0 0 0 0 0 0 0 0 0 0 0 0 0 0 0 0 0 0 0 0 0 0 0 0 0 0 0 0 0 0 0 0 0 0 0 0 0 0 0
0 0 0 0 0 0 0 0 0 0 0 0 0 0 0 0 0 0 0 0 0 0 0 0 0 0 0 0 0 0 0 0 0 0 0 0 0 0 0 0 0 0 0
0 0 0 0 0 0 0 0 0 0 0 0 0 0 0 0 0 0 0 0 0 0 0 0 0 0 0 0 0 0 0 0 0 0 0 0 0 0 0 0 0 0 0
0 0 0 0 0 0 0 0 0 0 0 0 0 0 0 0 0 0 0 0 0 0 0 0 0 0 0 0 0 0 0 0 0 0 0 0 0 0 0 0 0 0 0
0 0 0 0 0 0 0 0 0 0 0 0 0 0 0 0 0 0 0 0 0 0 0 0 0 0 0 0 0 0 0 0 0 0 0 0 0 0 0 0 0 0 0
0 0 0 0 0 0 0 0 0 0 0 0 0 0 0 0 0 0 0 0 0 0 0 0 0 0 0 0 0 0 0 0 0 0 0 0 0 0 0 0 0 0 0
0 0 0 0 0 0 0 0 0 0 0 0 0 0 0 0 0 0 0 0 0 0 0 0 0 0 0 0 0 0 0 0 0 0 0 0 0 0 0 0 0 0 0
0 0 0 0 0 0 0 0 0 0 0 0 0 0 0 0 0 0 0 0 0 0 0 0 0 0 0 0 0 0 0 0 0 0 0 0 0 0 0 0 0 0 0
0 0 0 0 0 0 0 0 0 0 0 0 0 0 0 0 0 0 0 0 0 0 0 0 0 0 0 0 0 0 0 0 0 0 0 0 0 0 0 0 0 0 0
0 0 0 0 0 0 0 0 0 0 0 0 0 0 0 0 0 0 0 0 0 0 0 0 0 0 0 0 0 0 0 0 0 0 0 0 0 0 0 0 0 0 0
0 0 0 0 0 0 0 0 0 0 0 0 0 0 0 0 0 0 0 0 0 0 0 0 0 0 0 0 0 0 0 0 0 0 0 0 0 0 0 0 0 0 0
0 0 0 0 0 0 0 0 0 0 0 0 0 0 0 0 0 0 0 0 0 0 0 0 0 0 0 0 0 0 0 0 0 0 0 0 0 0 0 0 0 0 0
0 0 0 0 0 0 0 0 0 0 0 0 0 0 0 0 0 0 0 0 0 0 0 0 0 0 0 0 0 0 0 0 0 0 0 0 0 0 0 0 0 0 0
0 0 0 0 0 0 0 0 0 0 0 0 0 0 0 0 0 0 0 0 0 0 0 0 0 0 0 0 0 0 0 0 0 0 0 0 0 0 0 0 0 0 0
0 0 0 0 0 0 0 0 0 0 0 0 0 0 0 0 0 0 0 0 0 0 0 0 0 0 0 0 0 0 0 0 0 0 0 0 0 0 0 0 0 0 0
0 0 0 0 0 0 0 0 0 0 0 0 0 0 0 0 0 0 0 0 0 0 0 0 0 0 0 0 0 0 0 0 0 0 0 0 0 0 0 0 0 0 0
0 0 0 0 0 0 0 0 0 0 0 0 0 0 0 0 0 0 0 0 0 0 0 0 0 0 0 0 0 0 0 0 0 0 0 0 0 0 0 0 0 0 0
0 0 0 0 0 0 0 0 0 0 0 0 0 0 0 0 0 0 0 0 0 0 0 0 0 0 0 0 0 0 0 0 0 0 0 0 0 0 0 0 0 0 0
0 0 0 0 0 0 0 0 0 0 0 0 0 0 0 0 0 0 0 0 0 0 0 0 0 0 0 0 0 0 0 0 0 0 0 0 0 0 0 0 0 0 0
0 0 0 0 0 0 0 0 0 0 0 0 0 0 0 0 0 0 0 0 0 0 0 0 0 0 0 0 0 0 0 0 0 0 0 0 0 0 0 0 0 0 0
Wind_Speed
3 2 2 2 3 3 2 3 3 3 2 3 3 3 3 3 3 3 3 3 3 3 3 3 4 4 4 3 4 4 4 5 7 8 7 7 9 9 8 8 9 9 8
2 2 2 2 2 2 2 2 2 3 2 2 2 2 3 3 3 3 3 3 3 3 4 4 5 4 5 4 4 5 5 5 6 9 8 7 9 9 9 10 9 8 9
2 2 2 2 2 2 2 2 2 2 2 2 2 2 3 3 3 2 3 3 3 4 4 4 5 5 5 5 5 5 5 5 5 7 8 7 7 7 9 9 10 8 8
2 3 3 3 2 2 2 2 2 2 2 2 2 2 2 2 3 3 2 3 3 4 4 4 5 5 5 6 5 6 5 5 6 6 7 7 7 8 8 8 8 8 8
3 3 3 2 2 2 2 2 2 2 2 2 2 2 2 2 2 3 3 3 3 4 4 4 5 5 6 6 5 5 5 5 5 6 7 7 7 7 7 7 9 9 8
3 3 3 3 2 2 2 2 2 2 2 2 2 3 3 2 3 4 4 3 3 4 4 5 5 5 6 8 8 8 8 7 7 7 7 8 9 9 8 8 8 8 8
4 4 3 3 3 3 2 2 2 3 2 2 3 3 4 4 4 5 5 4 4 4 5 5 4 5 6 6 6 8 8 10 11 10 10 10 10 9 9 9 9 9 9
4 4 4 3 3 3 3 3 3 3 3 3 3 4 4 5 5 5 6 4 4 5 5 5 5 6 5 6 6 7 7 7 8 8 8 9 9 9 8 9 9 9 9
5 5 4 4 4 3 4 4 3 3 3 3 3 4 4 5 6 6 6 4 4 6 6 6 6 6 7 8 7 7 8 7 8 9 10 11 12 12 9 6 6 6 7
6 5 4 4 4 5 5 4 4 3 4 3 4 4 5 6 6 7 7 4 5 5 5 6 6 7 8 9 7 7 8 8 7 8 8 9 9 9 10 7 6 6 6
4 4 4 4 5 5 4 4 4 3 3 4 5 5 5 6 7 8 8 5 5 6 5 5 5 8 10 10 9 7 9 9 7 7 7 7 6 5 5 5 5 6 7
3 4 4 4 4 3 4 4 4 4 4 4 5 5 5 5 6 7 8 8 8 7 6 6 6 10 11 11 8 8 10 8 5 6 6 6 6 5 5 5 6 6 7
3 4 4 4 4 4 4 4 4 4 4 4 4 5 5 4 5 8 9 10 10 7 6 9 10 11 11 8 8 9 7 5 5 6 6 6 6 6 6 5 5 6 7
4 4 4 4 4 4 4 4 4 5 5 5 5 6 5 5 5 4 4 5 7 7 7 7 10 10 9 7 6 5 4 5 5 6 6 6 6 5 5 5 5 5 5
5 4 4 4 4 4 4 5 6 6 6 6 6 5 6 6 6 8 6 5 5 6 6 5 5 5 4 4 5 5 5 5 5 5 6 6 5 5 5 5 4 4 5
5 5 4 4 4 4 4 5 8 9 10 11 10 9 7 10 11 11 11 12 11 9 6 5 6 6 6 6 6 6 5 5 5 5 5 6 6 5 5 5 4 5 6
6 5 4 4 4 4 4 5 5 6 9 11 11 12 12 12 12 12 12 12 10 8 6 6 6 6 6 6 6 6 6 6 5 5 6 6 5 5 5 5 5 5 6
6 5 5 4 4 4 5 5 5 5 5 5 7 11 12 12 12 12 11 9 7 6 6 6 7 7 6 6 6 6 6 6 5 5 6 5 5 5 5 5 5 6 6
5 4 4 4 4 4 4 4 5 6 6 6 5 6 7 10 11 10 8 6 6 7 6 7 7 7 7 7 7 6 6 6 6 6 6 6 5 5 5 6 6 7 7
4 5 4 4 4 4 4 5 5 5 6 6 6 6 4 5 5 6 6 6 6 7 7 7 7 7 7 7 7 6 6 6 7 6 6 5 5 5 6 7 6 6 6
3 4 4 4 4 5 5 5 5 5 6 6 6 6 8 6 6 7 6 6 7 7 7 7 7 7 7 6 6 7 8 7 6 6 6 5 5 5 6 6 6 6 6
3 3 4 4 4 4 5 5 5 6 6 7 6 6 9 6 6 6 7 7 7 6 6 7 7 6 6 6 6 7 7 7 7 6 6 6 5 6 6 6 6 6 6
3 4 4 4 4 4 5 5 5 5 6 6 6 6 5 6 6 6 7 6 6 6 6 6 7 6 6 6 6 7 8 8 7 6 6 6 6 6 5 6 7 7 6
3 4 4 4 4 4 5 5 5 6 6 6 6 6 6 6 6 7 7 6 6 6 6 6 7 8 10 8 6 7 7 8 7 6 8 7 7 6 5 6 6 7 7
3 4 4 4 4 5 5 5 5 6 6 6 6 6 6 6 7 7 6 6 7 7 8 7 6 7 10 11 10 9 9 10 9 7 6 6 7 7 6 6 6 6 7
3 4 4 4 4 5 5 5 6 6 6 6 6 6 6 6 6 6 6 6 6 6 7 7 8 9 11 9 10 11 10 10 9 9 6 5 6 6 6 5 7 7 7
Wind_Direction
235 233 223 231 239 247 247 255 266 274 282 287 290 294 298 300 300 294 294 297 297 304 309 304 302 300 296 300 294 286 282 277 279 291 293 299 301 299 301 301 298 297 296
224 213 216 229 226 236 252 267 276 279 282 281 283 286 292 293 292 289 291 295 296 300 304 302 300 299 297 297 292 290 288 282 277 285 294 300 300 302 303 300 298 296 296
203 209 221 228 232 240 257 270 272 279 289 291 286 283 286 288 289 286 285 289 292 294 296 295 297 296 298 299 298 295 291 290 284 282 290 296 299 303 303 298 297 294 294
192 210 224 229 235 246 250 260 262 268 276 284 288 288 290 293 291 289 289 290 291 293 296 294 293 294 294 294 294 293 293 293 287 283 287 294 296 301 299 299 300 299 297
196 210 223 228 236 248 253 257 263 262 266 275 281 287 292 289 288 290 285 284 287 293 295 295 295 297 298 293 289 291 291 287 287 286 287 292 295 302 301 301 298 302 299
204 215 218 219 227 237 251 255 259 263 268 276 278 285 286 279 289 287 290 287 291 291 293 295 297 291 294 292 293 293 288 283 284 286 287 288 293 296 299 295 296 299 300
213 220 222 223 233 243 250 249 251 254 261 266 272 277 277 280 282 284 287 284 283 285 288 293 291 292 291 293 295 292 291 291 286 281 281 284 290 293 295 293 291 291 288
222 225 223 223 235 244 247 249 255 256 259 265 272 274 279 282 281 280 285 276 279 280 281 283 282 286 290 294 296 293 291 291 290 285 280 284 289 291 287 287 291 292 286
227 228 225 221 230 237 243 249 254 254 262 266 273 273 275 279 278 279 283 278 276 280 281 281 283 286 295 298 296 294 295 295 295 292 293 292 294 298 297 290 288 290 290
228 228 227 223 227 234 243 249 253 252 259 268 271 271 270 274 276 276 279 272 274 278 280 279 278 281 291 295 290 291 294 299 305 306 301 300 297 295 293 283 281 281 286
226 225 228 227 230 234 242 248 251 253 260 265 270 271 270 270 273 274 276 271 271 277 279 281 283 288 289 291 292 290 295 304 303 300 298 299 299 295 290 284 278 274 276
215 224 232 232 233 230 235 247 249 249 255 262 266 270 268 268 267 272 275 271 275 275 275 280 284 291 292 293 293 294 299 301 294 293 293 294 296 297 299 295 285 275 270
218 233 238 239 240 237 234 240 245 243 246 255 258 264 268 268 270 273 273 274 275 273 274 280 287 291 293 289 290 296 297 290 287 286 287 290 294 297 298 297 292 282 275
229 239 237 239 245 241 241 239 240 240 242 248 254 261 268 269 268 271 271 274 275 273 276 282 285 286 287 290 294 292 285 284 285 284 288 292 297 297 295 298 298 300 297
238 242 244 242 245 246 245 245 244 246 244 249 254 259 266 269 271 277 281 277 275 276 284 280 278 279 279 281 282 283 282 282 280 282 287 290 292 293 293 296 296 297 292
238 242 242 243 243 245 251 262 255 254 261 260 264 266 269 272 285 282 280 281 283 283 279 270 271 272 273 276 279 282 280 279 280 281 281 282 284 287 292 294 291 289 289
236 242 244 243 242 243 246 253 269 266 256 260 263 268 269 276 280 283 284 283 279 276 265 263 265 268 272 273 273 274 276 278 279 275 275 278 281 283 285 288 291 290 289
238 243 242 243 243 244 246 249 256 266 276 273 267 267 272 276 279 282 285 285 272 262 257 261 264 266 267 268 270 271 274 275 270 269 270 272 272 274 277 280 283 287 291
236 241 240 246 246 246 249 251 253 257 264 273 280 278 272 275 276 275 274 262 262 263 262 262 264 266 267 267 267 268 269 269 268 267 265 265 265 267 270 274 279 283 284
239 243 243 246 249 248 247 248 252 255 260 264 268 275 282 277 270 268 259 256 257 260 263 265 266 266 267 266 266 266 266 265 264 260 261 261 260 260 264 269 273 276 277
246 244 240 248 247 247 248 249 253 256 260 264 267 269 274 274 271 270 267 262 260 261 263 265 265 265 263 263 264 263 263 263 261 260 260 260 259 261 265 266 267 269 274
242 244 242 247 254 256 257 257 256 257 262 267 274 276 272 268 268 269 269 269 266 264 263 263 264 262 260 259 259 262 263 263 262 258 257 259 259 260 263 264 265 267 271
242 246 250 253 255 259 261 260 259 259 262 265 270 272 268 265 267 269 271 273 274 273 270 265 266 267 264 259 255 254 256 258 258 254 252 253 254 256 258 260 262 268 273
242 246 251 255 254 254 256 260 262 263 264 266 266 266 266 266 267 269 271 272 272 271 269 267 265 265 267 268 263 257 255 258 257 250 245 246 250 254 256 260 262 264 269
245 250 254 257 259 261 263 264 265 266 267 267 268 269 269 270 271 272 272 273 274 273 274 272 268 267 265 265 265 263 261 260 257 249 243 243 246 249 252 258 261 266 268
250 255 259 261 262 264 266 270 272 273 272 272 271 271 273 274 275 277 278 276 277 277 276 272 269 272 273 269 265 265 265 261 257 249 238 238 243 247 249 254 259 264 267